Terminal Aerodrome Forecast
Issued by NWS

Home | Current Version | Previous Version | Text Only | Print | Product List | Glossary On
Versions: 1 2 3 4 5 6 7 8 9 10 11 12 13 14 15 16 17 18 19 20 21 22 23 24 25 26 27 28
000
FTUS44 KFWD 010600 AAA
TAFFTW
TAF AMD
KFTW 010612Z 0106/0206 02007KT P6SM SCT008 OVC015
     FM011100 01009KT P6SM BKN012 OVC020
     FM011700 02009KT P6SM BKN025
     FM011900 03008KT P6SM BKN035
     FM012300 06008KT P6SM SCT035=

USA.gov is the U.S. government's official web portal to all federal, state and local government web resources and services.